Flag for Canada

Past Weather in Chatham-Kent, Ontario, Canada — Yesterday and Last 2 Weeks

Now
72 °F

Mild.


Feels Like: 75 °F
Forecast: 77 / 64 °F
Wind: 2 mph from Northeast

Location: Erieau

Current Time: Jul 14, 2020 at 10:20:37 am

Latest Report: Jul 14, 2020 at 9:00 am


Visibility: N/A

Pressure: 30.08 "Hg

Humidity: 69%

Dew Point: 61 °F

Location of Chatham-KentLocation

Past Weather in Chatham-Kent — Graph

°F

Chatham-Kent Temperature Yesterday

Maximum temperature yesterday: 76 °F (at 3:00 pm)
Minimum temperature yesterday: 63 °F (at 7:00 am)
Average temperature yesterday: 70 °F

High & Low Weather Summary for the Past Weeks

 TemperatureHumidityPressure
High87 °F (Jul 9, 3:00 pm)100% (Jul 9, 5:00 am)30.08 "Hg (Jul 9, 5:00 am)
Low63 °F (Jul 13, 7:00 am)43% (Jul 2, 12:00 pm)29.63 "Hg (Jul 11, 2:00 am)
Average76 °F73%29.91 "Hg
* Reported Jun 29 9:00 am — Jul 14 9:00 am, Chatham-Kent. Weather by CustomWeather, © 2020

Note: Actual official high and low records may vary slightly from our data, if they occured in-between our weather recording intervals... More about our weather records

Chatham-Kent Weather History for the Previous 24 Hours

Scroll right to see more
 ConditionsComfort  
Time TempWeatherWind HumidityBarometerVisibility
9:00 am
Tue, Jul 14
72 °FMild.2 mph69%30.08 "HgN/A
8:00 am70 °FMild.3 mph73%30.06 "HgN/A
7:00 am68 °FMild.7 mph75%30.06 "HgN/A
6:00 am65 °FMild.6 mph84%30.03 "HgN/A
5:00 am67 °FMild.7 mph78%30.01 "HgN/A
4:00 am67 °FMild.7 mph78%30.00 "HgN/A
3:00 am67 °FMild.8 mph78%30.00 "HgN/A
2:00 am66 °FMild.7 mph78%29.99 "HgN/A
1:00 am69 °FMild.6 mph63%29.98 "HgN/A
12:00 am70 °FMild.7 mph67%29.98 "HgN/A
11:00 pm
Mon, Jul 13
71 °FMild.1 mph54%29.98 "HgN/A
10:00 pm72 °FMild.1 mph51%29.98 "HgN/A
9:00 pm74 °FMild.2 mph49%29.97 "HgN/A
8:00 pm75 °FMild.7 mph44%29.97 "HgN/A
7:00 pm76 °FMild.6 mph56%29.96 "HgN/A
6:00 pm76 °FMild.6 mph58%29.96 "HgN/A
5:00 pm76 °FMild.5 mph50%29.95 "HgN/A
4:00 pm76 °FMild.7 mph51%29.95 "HgN/A
3:00 pm76 °FMild.3 mph52%29.94 "HgN/A
2:00 pm74 °FMild.3 mph56%29.94 "HgN/A
1:00 pm74 °FMild.2 mph56%29.94 "HgN/A
12:00 pm72 °FMild.2 mph62%29.94 "HgN/A
11:00 am73 °FMild.3 mph64%29.93 "HgN/A
10:00 am70 °FMild.2 mph71%29.93 "HgN/A
Weather by CustomWeather, © 2020

See weather overview